Printer-friendly version

IAU Minor Planet Center

Minor Planet Center

MPEC 2004-L12 : 2004 FX31

The following Minor Planet Electronic Circular may be linked-to from your own Web pages, but must not otherwise be redistributed electronically.


Read MPEC 2004-L11 Read MPEC 2004-L13


M.P.E.C. 2004-L12                                Issued 2004 June 8, 14:59 UT

     The Minor Planet Electronic Circulars contain information on unusual
         minor planets and routine data on comets.  They are published
   on behalf of Commission 20 of the International Astronomical Union by the
          Minor Planet Center, Smithsonian Astrophysical Observatory,
                          Cambridge, MA 02138, U.S.A.

         Supported in part by the Steven and Michele Kirsch Foundation
             Prepared using the Tamkin Foundation Computer Network

                              MPC@CFA.HARVARD.EDU
          URL http://cfa-www.harvard.edu/iau/mpc.html  ISSN 1523-6714

                                   2004 FX31

                           Revision to MPEC 2004-F97

Additional Observations:
     K04F31X 9 1990 06 22.19861 16 30 30.26 +27 51 40.5          19.6   EL012261
     K04F31X 9 1990 06 22.24375 16 30 26.21 +27 51 03.8          19.8   EL012261
     K04F31X  C2000 06 09.55351 18 18 25.73 +26 17 36.3          19.5 R EL012608
     K04F31X  C2000 06 09.56531 18 18 24.46 +26 17 39.3          19.5 R EL012608
     K04F31X  C2000 06 09.57664 18 18 23.17 +26 17 42.6          19.4 R EL012608

Observer details:
261 Palomar-DSS.  Observer J. Mueller.  Measurers R. Haver, A. Pelloni,
    G. Forti.  1.2-m Schmidt.
608 Haleakala-NEAT/MSSS.  Observers E. F. Helin, S. Pravdo, K. Lawrence,
    P. Kervin, D. Talent, R. Maeda, P. Tanner.  Measurers R. Haver, A. Pelloni,
    G. Forti.  1.2-m reflector + CCD.

First and last observations above in comparison with prediction:
Residuals in seconds of arc (or two decimals in degrees), reference and Delta-T
900622 261 0.61- 0.04+    000609 608 0.15- 0.03+    MPO 62542   -0.0054 day

Orbital elements:
2004 FX31
Epoch 2004 July 14.0 TT = JDT 2453200.5                 MPC
M 118.55642              (2000.0)            P               Q
n   0.69618656     Peri.  285.68162     -0.10266452     -0.99165336
a   1.2608177      Node   169.26275     +0.99468326     -0.10170850
e   0.4419126      Incl.   24.74964     -0.00807513     +0.07924009
P   1.42           H   17.5           G   0.15           U   3
Residuals in seconds of arc
900622 261  0.8-  0.2+    040407 926  0.3+  0.1-    040424 H67  0.0   0.0
900622 261  0.6+  1.3-    040407 926  0.1+  0.3-    040424 H67  0.1+  0.2-
000609 608  0.1-  0.6+    040408 118  0.5+  0.2+    040424 H67  0.3+  0.1+
000609 608  0.6+  0.5+    040408 118  0.5+  0.1-    040424 G70  0.4+  0.1+
000609 608  0.4+  0.9+    040408 118  0.4+  0.0     040424 G70  0.9+  0.3+
040331 699  0.2+  0.1+    040408 118  0.4+  0.2+    040424 G70  0.1+  0.5-
040331 699  0.0   0.1+    040408 118  0.6+  0.1+    040424 084  0.4-  0.1-
040331 699  0.2+  0.0     040409 704  0.4+  0.8+    040425 084  0.5-  0.2+
040331 699  0.3-  0.1+    040409 704  0.6+  0.6+    040426 084  0.0   0.6+
040331 649  0.2+  0.5+    040409 704  0.3+  0.7+    040426 A41  0.2+  0.4+
040331 673  0.1+  0.2-    040409 704  0.4+  0.7+    040426 A41  0.1+  0.7+
040331 649  0.2+  0.3+    040409 704  0.1+  0.8+    040426 A41  0.3-  0.3+
040331 673  0.4+  0.1-    040412 127  0.5+  0.0     040427 H41  0.7+  0.1+
040331 649  0.2+  0.2+    040412 127  0.7+  0.1-    040427 H41  0.1+  1.2+
040331 673  0.6+  0.1+    040412 127  0.3+  0.3+    040427 H41  0.3-  0.7+
040331 854  0.2+  0.1-    040414 127  0.1+  0.2-    040428 H41  1.9-  0.1+
040331 854  0.3+  0.0     040414 127  0.0   0.1-    040428 H41  0.4-  0.5+
040331 854  0.4+  0.1-    040414 127  0.1-  0.2-    040428 H41  0.1-  1.0-
040331 673  0.5+  0.5+    040414 127  0.1-  0.0     040428 H41  0.6-  0.2+
040331 673  0.8+  0.4+    040414 215  0.1-  0.2-    040428 A16  0.1+  1.0-
040331 673  0.4+  0.1+    040414 215  0.2+  0.5-    040428 A16  0.7-  0.8-
040331 176  0.0   0.1+    040414 215  0.2-  0.4-    040428 A16  1.4-  0.8-
040331 176  0.0   0.1+    040415 H41  0.7-  0.0     040428 A16  1.4-  0.1+
040331 176  0.1+  0.1+    040415 H41  0.6-  1.2-    040430 704  0.8+  0.4+
040331 176  0.1+  0.1+    040415 H41  0.4-  1.6-    040430 704  0.1-  0.4+
040331 176  0.1+  0.1+    040415 H41  0.2-  0.4-    040430 704  0.3-  0.4-
040331 A16  1.0-  0.6-    040415 127  0.0   0.5-    040430 704  0.8-  0.1-
040331 A16  1.2-  0.7-    040415 127  0.1-  0.5-    040430 170  0.2+  0.0
040331 A16  2.0-  0.6-    040415 127  0.0   0.3-    040430 170  0.2-  0.1-
040331 A16  0.6-  0.8-    040415 127  0.1+  0.5-    040430 170  0.3-  0.2-
040331 A16  1.0-  0.8-    040416 H72  0.1-  0.1+    040501 926  0.0   0.1+
040331 A16  1.1-  1.1-    040416 H72  1.3+  0.5+    040501 926  0.3+  0.1-
040331 A16  0.9-  1.3-    040416 H72  0.6+  0.0     040501 926  0.5-  0.4-
040331 A50  0.4+  0.7+    040416 H72  0.9+  0.5+    040501 176  0.2-  0.2-
040331 A50  0.6+  0.4+    040416 H41  0.6+  0.1+    040501 176  0.2-  0.2-
040331 A50  0.3-  0.2-    040416 H41  0.0   0.1-    040501 176  0.3-  0.2-
040331 A50  0.3-  0.4+    040416 H41  0.5+  0.4-    040501 176  0.3-  0.2-
040331 A50  0.3-  0.0     040416 H41  0.7+  0.1-    040501 176  0.3-  0.2-
040401 649  0.0   0.2+    040416 H41  0.2+  0.5+    040507 084  0.7-  0.4+
040401 649  0.1+  0.3+    040416 084  0.2-  0.0     040508 084  0.5-  0.2-
040401 649  0.0   0.3+    040416 084  0.1-  0.1+    040508 941  0.1-  0.4-
040401 A83  0.1+  0.1+    040417 084  0.4+  0.1+    040508 941  0.1-  0.4-
040401 A83  0.1-  0.3-    040417 084  0.4+  0.0     040508 941  0.1-  0.4-
040401 A83  0.0   0.1+    040418 H72  0.0   0.1-    040508 941  0.1-  0.3-
040401 A16  0.5-  0.7-    040418 H72  0.2+  0.1-    040508 941  0.3-  0.1-
040401 A16  0.7-  0.1-    040418 H72  0.4+  0.1-    040509 704 (2.5-  1.8+)
040401 A16  0.8-  0.1-    040418 H41  0.3-  0.4+    040509 704  1.9-  1.3+
040401 A16  0.3-  0.4-    040418 H41  0.1+  0.3-    040509 704  1.9-  1.9+
040401 A16  0.4-  0.7-    040418 H41  0.2+  0.7+    040509 704 (2.6-  1.5+)
040402 379  0.1-  1.7+    040418 H41  0.4+  0.0     040509 704 (0.0   3.4+)
040402 379  0.5-  0.9+    040418 H41  0.1+  0.3-    040509 084  0.7+  0.6+
040402 379  0.6-  1.0+    040418 084  0.0   0.4+    040512 084  0.9+  0.4-
040402 300  1.6+  0.8+    040418 084  0.2-  0.5+    040512 084  0.6+  0.9-
040402 300  0.3-  0.4-    040419 H41  1.0+  1.0+    040513 084  0.1+  0.8-
040402 300  0.0   1.4-    040419 H41  0.1+  0.1-    040516 560  0.4+  0.1+
040403 J95  0.0   0.1-    040419 H41  0.6-  0.5+    040516 560  0.0   0.1+
040403 J95  0.1+  0.3+    040419 H41  0.2-  1.0-    040516 560  0.7-  0.2-
040403 J95  0.1+  0.3+    040419 H41  0.4-  0.6-    040517 240  0.4-  0.4-
040403 A16  0.4+  0.9-    040419 084  0.4+  0.3+    040517 240  0.4-  0.4-
040403 A16  0.3-  0.3-    040419 084  0.7-  0.2+    040517 240  0.2-  0.3-
040403 A16  0.2-  0.2-    040421 G70  0.2-  0.2+    040517 240  0.2-  0.0
040403 A16  0.7-  0.3-    040421 G70  0.5+  0.1+    040517 240  0.1-  0.0
040403 A16  0.4-  0.8-    040421 G70  0.1+  0.5-    040517 240  0.2-  0.2+
040403 A83  0.1+  0.0     040421 151  0.0   0.1+    040517 084  0.4+  0.2-
040403 A83  0.1+  0.2-    040421 151  0.4+  0.3+    040518 240  0.8+  0.2-
040404 926  0.2+  0.3+    040421 151  0.1+  0.3+    040518 240  0.7+  0.3-
040404 926  0.1-  0.3-    040421 151  0.4+  0.0     040518 240  0.5+  0.2-
040405 118  0.3-  0.0     040421 A41  0.1-  0.0     040518 240  0.0   0.1-
040405 118  0.1+  0.2+    040421 A41  0.3+  0.1+    040518 198  0.4-  1.0+
040405 118  0.1+  0.0     040421 A41  0.5-  0.7-    040518 240  0.1+  0.2+
040405 118  0.3+  0.0     040421 198  0.1-  0.0     040520 H41  0.2+  0.7-
040405 118  0.4+  0.1+    040421 198  0.1-  0.0     040520 H41  0.0   0.9+
040406 J95  0.0   0.2+    040422 198  0.1-  0.1+    040520 H41  0.7+  0.9-
040406 J95  0.0   0.1+    040422 198  0.1-  0.1+    040520 084  0.3+  0.5-
040406 J95  0.2+  0.3+    040422 198  0.1-  0.1-    040529 704  0.6+  1.4+
040406 926  0.2+  0.0     040422 198  0.2-  0.1+    040529 704  0.1-  0.3+
040406 926  0.1+  0.1-    040422 G73  0.3-  0.1+    040529 704  0.3+  0.0
040406 926  0.0   0.1-    040422 G73  0.6-  0.1-    040529 704  0.3+  0.2+
040407 A83  0.3+  0.2-    040422 084  0.0   0.5-    040529 704  0.3-  0.2+
040407 A83  0.0   0.3-    040423 084  0.1+  0.9-
040407 926  0.3+  0.1+    040423 084  0.4+  0.9-

Ephemeris:
2004 FX31                a,e,i = 1.26, 0.44, 25                  q = 0.7036
Date    TT    R. A. (2000) Decl.     Delta      r     Elong.  Phase     V
2004 06 04    13 33.77   +34 47.9    0.837    1.486   106.4    40.9    19.6
2004 06 14    13 41.92   +31 01.4    0.948    1.537   102.9    40.1    19.9
2004 06 24    13 51.68   +27 21.0    1.061    1.583    99.2    39.3    20.2
2004 07 04    14 02.80   +23 48.0    1.175    1.625    95.4    38.5    20.4
2004 07 14    14 15.05   +20 23.0    1.290    1.662    91.4    37.7    20.7
2004 07 24    14 28.30   +17 06.6    1.405    1.696    87.4    36.8    20.9
2004 08 03    14 42.45   +13 59.4    1.520    1.725    83.2    35.7    21.1
2004 08 13    14 57.41   +11 01.8    1.633    1.751    79.1    34.6    21.2
2004 08 23    15 13.14   +08 14.1    1.744    1.772    74.8    33.4    21.3
2004 09 02    15 29.61   +05 37.0    1.852    1.789    70.5    32.1    21.5
2004 09 12    15 46.79   +03 10.8    1.955    1.802    66.2    30.7    21.6
2004 09 22    16 04.66   +00 55.9    2.054    1.811    61.8    29.2    21.6

Kyle E. Smalley              (C) Copyright 2004 MPC           M.P.E.C. 2004-L12

Read MPEC 2004-L11 Read MPEC 2004-L13


Our Web policy. Index to the CBAT/MPC/ICQ pages.


Valid HTML 4.01!